Location: Lombard
(41.8800°N, 88.0080°W)
Time: 22:50:20
(UTC-05:00)

A-11 Canister half - Pass Details

Date: 30 January 2023
Orbit: 1512 x 1687 km, 47.2° (Epoch: 20 March)

Event Time Altitude Azimuth Distance (km) Brightness Sun altitude
Rises 13:49:36 0° 264° (W) 4,789 12.0 25.9°
Reaches altitude 10° 13:52:47 10° 267° (W) 3,780 11.6 25.6°
Maximum altitude 14:02:17 67° 350° (N) 1,650 9.4 24.7°
Drops below altitude 10° 14:11:32 10° 72° (ENE) 3,681 10.6 23.8°
Sets 14:14:35 0° 76° (ENE) 4,657 11.1 23.5°
